This is the latest recevied weather packets stored in our database for station/object KD4IZ-13. If no packets are shown the sender has not sent any weather packets the latest 1 day(s).
| Time | Temp. | Humidity | Pressure | Rain* | Wind** | Luminosity | Snow |
|---|---|---|---|---|---|---|---|
| 1778010111 | 26.67° C | 38% | 1010.8 hPa | 0 mm | 4.47 m/s, 243° | 515 W/m² | - |
| 1778009808 | 26.67° C | 38% | 1011 hPa | 0 mm | 5.36 m/s, 240° | 574 W/m² | - |
| 1778009505 | 26.67° C | 40% | 1010.9 hPa | 0 mm | 5.36 m/s, 264° | 555 W/m² | - |
| 1778009204 | 26.67° C | 40% | 1011 hPa | 0 mm | 2.24 m/s, 169° | 579 W/m² | - |
| 1778008901 | 26.67° C | 38% | 1011.1 hPa | 0 mm | 5.36 m/s, 144° | 576 W/m² | - |
| 1778008599 | 27.22° C | 39% | 1011.3 hPa | 0 mm | 8.49 m/s, 209° | 613 W/m² | - |
| 1778008297 | 27.22° C | 39% | 1011.3 hPa | 0 mm | 3.13 m/s, 245° | 608 W/m² | - |
| 1778007993 | 27.22° C | 40% | 1011.5 hPa | 0 mm | 3.13 m/s, 237° | 580 W/m² | - |
| 1778007693 | 26.67° C | 41% | 1011.3 hPa | 0 mm | 2.24 m/s, 195° | 615 W/m² | - |
| 1778007390 | 26.67° C | 42% | 1011.5 hPa | 0 mm | 5.36 m/s, 229° | 643 W/m² | - |
| 1778007086 | 26.11° C | 41% | 1011.5 hPa | 0 mm | 5.81 m/s, 225° | 672 W/m² | - |
| 1778006783 | 26.67° C | 43% | 1011.6 hPa | 0 mm | 2.68 m/s, 254° | 687 W/m² | - |
| 1778006480 | 26.67° C | 41% | 1011.5 hPa | 0 mm | 2.24 m/s, 238° | 628 W/m² | - |
| 1778006177 | 26.67° C | 41% | 1011.7 hPa | 0 mm | 4.02 m/s, 265° | 649 W/m² | - |
| 1778005874 | 26.67° C | 40% | 1011.6 hPa | 0 mm | 3.58 m/s, 245° | 679 W/m² | - |
| 1778005570 | 26.67° C | 40% | 1012 hPa | 0 mm | 4.02 m/s, 237° | 667 W/m² | - |
| 1778005267 | 26.11° C | 40% | 1011.6 hPa | 0 mm | 6.26 m/s, 221° | 667 W/m² | - |
| 1778004964 | 26.11° C | 41% | 1011.8 hPa | 0 mm | 3.58 m/s, 260° | 692 W/m² | - |
| 1778004661 | 26.67° C | 40% | 1012 hPa | 0 mm | 5.81 m/s, 228° | 706 W/m² | - |
| 1778004356 | 26.11° C | 42% | 1011.9 hPa | 0 mm | 5.81 m/s, 277° | 699 W/m² | - |
| 1778004055 | 26.11° C | 43% | 1011.9 hPa | 0 mm | 3.58 m/s, 223° | 698 W/m² | - |
| 1778003750 | 26.11° C | 41% | 1012.1 hPa | 0 mm | 4.92 m/s, 217° | 686 W/m² | - |
| 1778003447 | 26.11° C | 43% | 1012.2 hPa | 0 mm | 1.79 m/s, 334° | 678 W/m² | - |
| 1778003144 | 26.11° C | 42% | 1012 hPa | 0 mm | 6.26 m/s, 219° | 689 W/m² | - |
| 1778002840 | 25.56° C | 44% | 1012.3 hPa | 0 mm | 1.79 m/s, 272° | 701 W/m² | - |
* Rain latest hour (hover to see other rain measurements)
** Current wind speed in m/s (hover to see current wind gust speed)